Home   Weather   Montpelier   Past weeks
Flag for USA

Past Weather in Montpelier, Vermont, USA — Yesterday and Last 2 Weeks

Now
46 °F

Broken clouds.


Feels Like: 40 °F
Forecast: 54 / 46 °F
Wind: 14 mph from Northwest

Location: Knapp State Airport

Current Time: May 21, 2019 at 6:50:22 am

Latest Report: May 21, 2019 at 5:58 am


Visibility: 10 mi

Pressure: 29.82 "Hg

Humidity: 68%

Dew Point: 36 °F

Location of MontpelierLocation

Past Weather in Montpelier — Graph

°F

Montpelier Temperature Yesterday

Maximum temperature yesterday: 75 °F (at 2:51 pm)
Minimum temperature yesterday: 58 °F (at 11:51 pm)
Average temperature yesterday: 67 °F

High & Low Weather Summary for the Past Weeks

 TemperatureHumidityPressure
High78 °F (May 19, 2:51 pm)97% (May 6, 6:51 am)30.45 "Hg (May 6, 6:51 am)
Low29 °F (May 9, 3:51 am)26% (May 9, 2:51 pm)29.63 "Hg (May 17, 5:51 pm)
Average50 °F72%29.99 "Hg
* Reported May 6 4:51 am — May 21 4:51 am, Montpelier. Weather by CustomWeather, © 2019

Note: Actual official high and low records may vary slightly from our data, if they occured in-between our weather recording intervals... More about our weather records

Advertising

Montpelier Weather History for the Previous 24 Hours

Scroll right to see more
 ConditionsComfort  
Time TempWeatherWind HumidityBarometerVisibility
4:51 am
Tue, May 21
47 °FMostly cloudy.15 mph74%29.78 "Hg10 mi
4:38 am47 °FMostly cloudy.9 mph77%29.78 "Hg10 mi
4:21 am47 °FMostly cloudy.9 mph74%29.77 "Hg10 mi
4:14 am47 °FMostly cloudy.13 mph77%29.77 "Hg10 mi
2:51 am48 °FLight rain. Mostly cloudy.16 mph83%29.76 "Hg6 mi
1:51 am53 °FMostly cloudy.16 mph64%29.76 "Hg10 mi
12:51 am56 °FMostly cloudy.13 mph60%29.75 "Hg10 mi
11:51 pm
Mon, May 20
58 °FPassing clouds.9 mph56%29.75 "Hg10 mi
10:51 pm60 °FPassing clouds.12 mph56%29.74 "Hg10 mi
9:51 pm62 °FMostly cloudy.9 mph56%29.74 "Hg10 mi
8:51 pm63 °FMostly cloudy.9 mph60%29.73 "Hg10 mi
7:51 pm64 °FBroken clouds.7 mph65%29.71 "Hg10 mi
6:51 pm69 °FMostly cloudy.14 mph55%29.69 "Hg10 mi
5:51 pm72 °FBroken clouds.13 mph52%29.66 "Hg10 mi
4:51 pm74 °FMostly cloudy.15 mph48%29.66 "Hg10 mi
3:51 pm73 °FCloudy.9 mph57%29.66 "Hg10 mi
2:51 pm75 °FBroken clouds.8 mph58%29.67 "Hg10 mi
1:51 pm74 °FCloudy.7 mph60%29.68 "Hg10 mi
12:51 pm72 °FCloudy.12 mph64%29.71 "Hg10 mi
11:51 am71 °FBroken clouds.7 mph66%29.72 "Hg10 mi
10:51 am71 °FScattered clouds.10 mph68%29.72 "Hg10 mi
9:51 am70 °FMostly cloudy.8 mph68%29.74 "Hg10 mi
8:51 am69 °FPassing clouds.10 mph73%29.75 "Hg10 mi
7:51 am66 °FBroken clouds.8 mph84%29.77 "Hg10 mi
6:51 am64 °FLight rain. Overcast.6 mph90%29.76 "Hg7 mi
Weather by CustomWeather, © 2019

See weather overview